Home > Weather > Sanikiluaq > Past weeks

Flag for Canada Weather for the Past 2 Weeks in Sanikiluaq, Nunavut, Canada

Now
9 °F

Light snow. Overcast.


Feels Like: -6 °F
Forecast: -4 / 4 °F
Wind: 12 mph from Southeast

Location: Kuujjuarapik

Current Time: Feb 9, 2016 at 10:58:31 AM

Latest Report: Feb 9, 2016 at 10:00 AM


Visibility: 6 mi

Pressure: 29.82 "Hg

Humidity: 85%

Dew point: 5 °F

Location of SanikiluaqLocation

Historic Weather in Sanikiluaq — Graph

°F

Sanikiluaq Temperature Yesterday

Maximum temperature yesterday: 3 °F (at 10:00 PM)
Minimum temperature yesterday: -18 °F (at 7:00 AM)
Average temperature yesterday: -7 °F

High & Low Weather Summary for the Past Weeks

 TemperatureHumidityPressure
High16 °F (Jan 31, 1:54 AM)93% (Jan 31, 5:00 AM)30.46 "Hg (Jan 31, 5:00 AM)
Low-35 °F (Jan 29, 4:00 AM)57% (Jan 29, 1:00 PM)29.13 "Hg (Jan 31, 6:00 AM)
Average-9 °F77%29.89 "Hg
* Reported Jan 25 9:00 AM — Feb 9 9:00 AM, Sanikiluaq, Weather by CustomWeather, © 2016

Note: Actual official high and low records may vary slightly from our data, if they occured in-between our weather recording intervals... More about our weather records

Advertising

Sanikiluaq Weather History for the Previous 24 Hours

 ConditionsComfort  
Time TempWeatherWind HumidityBarometerVisibility
9:00 AM
Tue, Feb 9
7 °FLight snow. Overcast.13 mph85%29.83 "Hg9 mi
8:00 AM7 °FLight snow. Overcast.14 mph85%29.84 "Hg5 mi
7:50 AM7 °FLight snow. Overcast.13 mph78%29.84 "Hg4 mi
7:00 AM7 °FLight snow. Overcast.13 mph85%29.85 "Hg5 mi
6:04 AM7 °FLight snow. Overcast.14 mph78%29.85 "Hg5 mi
5:00 AM7 °FOvercast.13 mph72%29.87 "Hg9 mi
4:00 AM7 °FLight snow. Overcast.16 mph72%29.87 "Hg9 mi
3:00 AM5 °FOvercast.13 mph72%29.89 "Hg9 mi
2:00 AM5 °FOvercast.12 mph72%29.92 "Hg9 mi
1:00 AM5 °FOvercast.9 mph72%29.94 "Hg9 mi
12:00 AM5 °FOvercast.10 mph72%29.96 "Hg9 mi
11:00 PM
Mon, Feb 8
3 °FMostly cloudy.22 mph72%29.95 "Hg9 mi
10:00 PM3 °FOvercast.22 mph72%29.97 "Hg9 mi
9:00 PM1 °FOvercast.20 mph71%30.01 "Hg9 mi
8:00 PM1 °FPassing clouds.24 mph71%30.03 "Hg9 mi
7:00 PM1 °FMostly cloudy.21 mph65%30.06 "Hg9 mi
6:00 PM0 °FPassing clouds.15 mph71%30.10 "Hg9 mi
5:00 PM0 °FSunny.15 mph71%30.13 "Hg9 mi
4:00 PM0 °FSunny.9 mph71%30.16 "Hg9 mi
3:00 PM1 °FSunny.14 mph65%30.16 "Hg9 mi
2:00 PM1 °FSunny.13 mph65%30.19 "Hg9 mi
1:00 PM-2 °FSunny.16 mph71%30.23 "Hg9 mi
12:00 PM-4 °FSunny.16 mph65%30.27 "Hg9 mi
11:00 AM-8 °FSunny.18 mph70%30.31 "Hg9 mi
10:00 AM-11 °FSunny.13 mph70%30.35 "Hg9 mi
Weather by CustomWeather, © 2016

See weather overviewHow to use our weather pages